Flag for India Weather past 2 weeks in Thiruvananthapuram, Kerala, India

Now
86 °F

Haze.


Feels Like: 95 °F
Forecast: 79 / 91 °F
Wind: 3 mph from Southwest

Location: Thiruvananthapuram

Current Time: Mar 30, 2015 at 10:03:38 AM

Latest Report: Mar 30, 2015 at 8:40 AM


Visibility: 2 mi

Pressure: 29.86 "Hg

Humidity: 70%

Dew point: 75 °F

Location of ThiruvananthapuramLocation

Historic Weather in Thiruvananthapuram — Graph

°F

Thiruvananthapuram temperature yesterday

Maximum temperature yesterday: 91 °F (at 2:40 PM)
Minimum temperature yesterday: 79 °F (at 3:40 AM)
Average temperature yesterday: 84 °F

Past Weeks' High & Low Weather Summary

 TemperatureHumidityPressure
High93 °F (Mar 28, 3:40 PM)100% (Mar 18, 12:40 AM)29.95 "Hg (Mar 18, 12:40 AM)
Low64 °F (Mar 18, 12:40 AM)52% (Mar 22, 2:40 PM)29.71 "Hg (Mar 24, 3:40 PM)
Average84 °F74%29.84 "Hg
* Reported Mar 15 8:40 AM — Mar 30 8:40 AM, Thiruvananthapuram, Weather by CustomWeather, © 2015

Note: Actual official high and low records may vary slightly from our data, if they occured in-between our weather recording intervals... More about our weather records

Advertising

Thiruvananthapuram weather history for previous 24 hours

 ConditionsComfort  
Time TempWeatherWind HumidityBarometerVisibility
8:40 AM
Mon, Mar 30
86 °FHaze.3 mph70%29.86 "Hg2 mi
7:40 AM81 °FHaze.3 mph79%29.83 "Hg1 mi
6:40 AM79 °FHaze.No wind84%29.80 "Hg2 mi
5:40 AM79 °FHaze.No wind84%29.80 "Hg2 mi
4:40 AM79 °FHaze.No wind84%29.77 "Hg2 mi
1:40 AM81 °FHaze.No wind79%29.77 "Hg2 mi
12:40 AM81 °FHaze.No wind79%29.80 "Hg2 mi
11:40 PM
Sun, Mar 29
81 °FHaze.No wind79%29.83 "Hg2 mi
10:40 PM82 °FHaze.No wind79%29.83 "Hg2 mi
9:40 PM82 °FPassing clouds.5 mph79%29.83 "Hg2 mi
8:40 PM82 °FThunderstorms. Overcast.No wind79%29.80 "Hg2 mi
7:40 PM84 °FThunderstorms. Overcast.5 mph74%29.77 "Hg2 mi
6:40 PM86 °FThunderstorms. Cloudy.6 mph70%29.77 "Hg2 mi
4:40 PM91 °FPassing clouds.7 mph63%29.74 "Hg4 mi
3:40 PM91 °FPassing clouds.8 mph63%29.71 "Hg4 mi
2:40 PM91 °FPassing clouds.3 mph63%29.74 "Hg4 mi
12:40 PM90 °FPassing clouds.6 mph67%29.80 "Hg4 mi
11:40 AM90 °FPassing clouds.9 mph63%29.83 "Hg4 mi
10:40 AM88 °FPassing clouds.7 mph66%29.86 "Hg4 mi
Weather by CustomWeather, © 2015

See weather overviewHow to use our weather pages